LRBC Weather Reports


time (UTC)temp
C
wind
direction
speed
KPH
gust
KPH
rain 1hr
cm
rain 24hr
cm
rain mn
cm
humidity
%
barometer
mb
20260906050507 16 3.2 0.0 0.00 0.00 0.00 88 1019.0
20260906045008 13 50 8.0 0.0 0.00 0.00 0.00 94 1018.0
20260906043456 13 50 8.0 0.0 0.00 0.00 0.00
20260906042009 12 140 4.8 0.0 0.00 0.00 0.00 94 1018.0
20260906040407 12 140 4.8 0.0 0.00 0.00 0.00 94 1018.0
20260906034908 12 1.6 0.0 0.00 0.00 0.00 88 1018.0
20260906033508 12 1.6 0.0 0.00 0.00 0.00 88 1018.0
20260906032010 12 3.2 0.0 0.00 0.00 0.00 88 1018.0
20260906030508 12 3.2 0.0 0.00 0.00 0.00 88 1018.0
20260906024915 13 140 1.6 0.0 0.00 0.00 0.00 94 1018.0
20260906023348 13 140 1.6 0.0 0.00 0.00 0.00 94 1018.0
20260906021854 13 200 4.8 0.0 0.00 0.00 0.00 88 1018.0
20260906020349 13 200 4.8 0.0 0.00 0.00 0.00 88 1018.0
20260906014849 16 50 3.2 0.0 0.00 0.00 0.00 83 1018.0
20260906013509 16 50 3.2 0.0 0.00 0.00 0.00 83 1018.0
20260906011848 16 10 4.8 0.0 0.00 0.00 0.00 83 1018.0
20260906010347 16 10 4.8 0.0 0.00 0.00 0.00 83 1018.0
20260906005008 16 320 8.0 0.0 0.00 0.00 0.00 83 1018.0
20260906003518 16 320 8.0 0.0 0.00 0.00 0.00 83 1018.0
20260906002009 17 350 11.3 0.0 0.00 0.00 0.00 73 1018.0
20260906000458 17 350 11.3 0.0 0.00 0.00 0.00 73 1018.0
20260905234858 17 340 11.3 0.0 0.00 0.00 0.00 78 1018.0
20260905233347 17 340 11.3 0.0 0.00 0.00 0.00 78 1018.0
20260905232010 17 340 9.7 0.0 0.00 0.00 0.00 77 1018.0
20260905230420 17 340 9.7 0.0 0.00 0.00 0.00 77 1018.0
20260905225009 17 350 9.7 0.0 0.00 0.00 0.00 78 1018.0
20260905223401 17 350 9.7 0.0 0.00 0.00 0.00 78 1018.0
20260905221953 17 350 4.8 0.0 0.00 0.00 0.00 78 1018.0
20260905220508 17 350 4.8 0.0 0.00 0.00 0.00 78 1018.0
20260905215007 17 300 9.7 0.0 0.00 0.00 0.00 78 1018.0
20260905213348 17 300 9.7 0.0 0.00 0.00 0.00 78 1018.0
20260905211844 17 320 12.9 0.0 0.00 0.00 0.00 83 1018.0
20260905210347 17 320 12.9 0.0 0.00 0.00 0.00 83 1018.0
20260905204858 17 330 11.3 0.0 0.00 0.00 0.00 88 1017.0
20260905203347 17 330 11.3 0.0 0.00 0.00 0.00 88 1017.0
20260905201847 17 330 14.5 0.0 0.00 0.00 0.00 83 1017.0
20260905200508 17 330 14.5 0.0 0.00 0.00 0.00 83 1017.0
20260905195001 18 360 22.5 0.0 0.00 0.00 0.00 78 1017.0
20260905193348 18 360 22.5 0.0 0.00 0.00 0.00 78 1017.0
20260905191917 18 340 12.9 0.0 0.00 0.00 0.00 78 1016.0
20260905190348 18 340 12.9 0.0 0.00 0.00 0.00 78 1016.0
20260905184845 20 330 14.5 0.0 0.00 0.00 0.00 73 1016.0
20260905183353 20 330 14.5 0.0 0.00 0.00 0.00 73 1016.0
20260905181844 20 320 17.7 0.0 0.00 0.00 0.00 69 1016.0
20260905180344 20 320 17.7 0.0 0.00 0.00 0.00 69 1016.0
20260905174841 22 10 12.9 0.0 0.00 0.00 0.00 57 1015.0
20260905173347 22 10 12.9 0.0 0.00 0.00 0.00 57 1015.0
20260905170348 22 350 27.4 0.0 0.00 0.00 0.00 57 1016.0
20260905164848 22 360 24.1 0.0 0.00 0.00 0.00 53 1014.0
20260905163349 22 360 24.1 0.0 0.00 0.00 0.00 53 1014.0
20260905161846 25 350 27.4 0.0 0.00 0.00 0.00 51 1014.0
20260905160348 25 350 27.4 0.0 0.00 0.00 0.00 51 1014.0
20260905153347 27 350 33.8 0.0 0.00 0.00 0.00 48 1013.0
20260905151848 28 350 40.2 0.0 0.00 0.00 0.00 45 1012.0
20260905150348 28 350 40.2 0.0 0.00 0.00 0.00 45 1012.0
20260905144841 33 270 22.5 0.0 0.00 0.00 0.00 28 1011.0
20260905143347 33 270 22.5 0.0 0.00 0.00 0.00 28 1011.0
20260905141845 33 230 17.7 0.0 0.00 0.00 0.00 30 1011.0
20260905140344 33 230 17.7 0.0 0.00 0.00 0.00 30 1011.0
20260905135006 33 250 22.5 0.0 0.00 0.00 0.00 28 1011.0
20260905133348 33 250 22.5 0.0 0.00 0.00 0.00 28 1011.0
20260905131850 33 200 16.1 0.0 0.00 0.00 0.00 30 1012.0
20260905130409 33 200 16.1 0.0 0.00 0.00 0.00 30 1012.0
20260905124842 32 180 11.3 0.0 0.00 0.00 0.00 32 1012.0
20260905123348 32 180 11.3 0.0 0.00 0.00 0.00 32 1012.0
20260905121915 32 190 22.5 0.0 0.00 0.00 0.00 32 1013.0
20260905120348 32 190 22.5 0.0 0.00 0.00 0.00 32 1013.0
20260905114848 32 230 17.7 0.0 0.00 0.00 0.00 30 1013.0
20260905113347 32 230 17.7 0.0 0.00 0.00 0.00 30 1013.0
20260905111906 32 210 20.9 0.0 0.00 0.00 0.00 30 1013.0
20260905110347 32 210 20.9 0.0 0.00 0.00 0.00 30 1013.0
20260905104848 32 220 20.9 0.0 0.00 0.00 0.00 30 1013.0
20260905103348 32 220 20.9 0.0 0.00 0.00 0.00 30 1013.0
20260905101847 32 240 20.9 0.0 0.00 0.00 0.00 30 1014.0
20260905100348 32 240 20.9 0.0 0.00 0.00 0.00 30 1014.0
20260905095008 31 240 20.9 0.0 0.00 0.00 0.00 33 1014.0
20260905093347 31 240 20.9 0.0 0.00 0.00 0.00 33 1014.0
20260905091848 31 260 24.1 0.0 0.00 0.00 0.00 33 1014.0
20260905090347 31 260 24.1 0.0 0.00 0.00 0.00 33 1014.0
20260905084847 30 250 24.1 0.0 0.00 0.00 0.00 35 1015.0
20260905083348 30 250 24.1 0.0 0.00 0.00 0.00 35 1015.0
20260905081847 28 260 24.1 0.0 0.00 0.00 0.00 37 1015.0
20260905080348 28 260 24.1 0.0 0.00 0.00 0.00 37 1015.0
20260905074848 27 250 27.4 0.0 0.00 0.00 0.00 40 1014.0
20260905073356 27 250 27.4 0.0 0.00 0.00 0.00 40 1014.0
20260905071848 27 250 27.4 0.0 0.00 0.00 0.00 42 1015.0
20260905070347 27 250 27.4 0.0 0.00 0.00 0.00 42 1015.0
20260905064848 27 240 17.7 0.0 0.00 0.00 0.00 42 1015.0
20260905063348 27 240 17.7 0.0 0.00 0.00 0.00 42 1015.0
20260905061848 25 160 11.3 0.0 0.00 0.00 0.00 44 1015.0
20260905060348 25 160 11.3 0.0 0.00 0.00 0.00 44 1015.0
20260905054848 23 9.7 0.0 0.00 0.00 0.00 47 1015.0
20260905053348 23 9.7 0.0 0.00 0.00 0.00 47 1015.0
20260905051847 18 80 8.0 0.0 0.00 0.00 0.00 68 1015.0